FW2547 Weather Reports


time (UTC)temp
C
wind
direction
speed
KPH
gust
KPH
rain 1hr
cm
rain 24hr
cm
rain mn
cm
humidity
%
barometer
mb
20260509130031 17 59 1.6 8.0 0.00 0.00 0.00 41 1007.9
20260509124523 16 58 6.4 8.0 0.00 0.00 0.00 41 1007.6
20260509123018 16 58 3.2 4.8 0.00 0.00 0.00 41 1007.5
20260509121523 16 57 0.0 3.2 0.00 0.00 0.00 42 1007.1
20260509120013 16 57 3.2 4.8 0.00 0.00 0.00 41 1007.0
20260509114522 16 58 1.6 6.4 0.00 0.00 0.00 41 1006.6
20260509113010 17 57 3.2 8.0 0.00 0.00 0.00 40 1006.6
20260509111508 17 57 1.6 4.8 0.00 0.00 0.00 38 1006.5
20260509110006 17 57 1.6 6.4 0.00 0.00 0.00 38 1006.5
20260509104506 17 58 4.8 8.0 0.00 0.00 0.00 38 1006.5
20260509103003 17 72 3.2 8.0 0.00 0.00 0.00 38 1006.3
20260509101501 18 72 4.8 9.7 0.00 0.00 0.00 37 1006.4
20260509100059 18 73 4.8 8.0 0.00 0.00 0.00 37 1006.3
20260509094558 18 74 4.8 8.0 0.00 0.00 0.00 36 1006.3
20260509093059 18 81 4.8 8.0 0.00 0.00 0.00 36 1006.2
20260509091555 18 65 4.8 12.9 0.00 0.00 0.00 35 1006.3
20260509090052 19 68 8.0 12.9 0.00 0.00 0.00 35 1006.3
20260509084551 19 58 6.4 9.7 0.00 0.00 0.00 35 1006.5
20260509083050 19 63 6.4 9.7 0.00 0.00 0.00 35 1006.4
20260509081550 20 64 8.0 12.9 0.00 0.00 0.00 33 1006.3
20260509080043 20 64 9.7 14.5 0.00 0.00 0.00 33 1006.4
20260509074553 20 60 11.3 16.1 0.00 0.00 0.00 33 1006.4
20260509073038 20 68 9.7 14.5 0.00 0.00 0.00 33 1006.5
20260509071536 20 57 8.0 11.3 0.00 0.00 0.00 32 1006.5
20260509070035 20 63 6.4 12.9 0.00 0.00 0.00 31 1006.7
20260509064540 21 63 6.4 9.7 0.00 0.00 0.00 31 1006.7
20260509063029 21 67 6.4 12.9 0.00 0.00 0.00 30 1006.8
20260509061528 21 74 3.2 9.7 0.00 0.00 0.00 29 1007.2
20260509060023 21 80 4.8 12.9 0.00 0.00 0.00 28 1006.8
20260509054523 22 59 6.4 8.0 0.00 0.00 0.00 27 1006.8
20260509053022 22 71 6.4 14.5 0.00 0.00 0.00 25 1006.8
20260509051524 23 116 9.7 19.3 0.00 0.00 0.00 21 1006.5
20260509050022 25 94 6.4 14.5 0.00 0.00 0.00 16 1006.5
20260509044520 25 211 3.2 4.8 0.00 0.00 0.00 15 1006.2
20260509043020 26 212 1.6 3.2 0.00 0.00 0.00 16 1006.3
20260509041520 26 212 0.0 4.8 0.00 0.00 0.00 15 1006.1
20260509040019 26 210 3.2 4.8 0.00 0.00 0.00 15 1006.0
20260509034536 26 207 4.8 9.7 0.00 0.00 0.00 15 1005.8
20260509033018 27 205 3.2 6.4 0.00 0.00 0.00 14 1005.7
20260509031517 27 206 3.2 6.4 0.00 0.00 0.00 13 1005.5
20260509030020 28 182 3.2 6.4 0.00 0.00 0.00 12 1005.3
20260509024516 28 173 6.4 11.3 0.00 0.00 0.00 12 1005.2
20260509023015 28 169 6.4 9.7 0.00 0.00 0.00 12 1004.9
20260509021517 29 259 1.6 4.8 0.00 0.00 0.00 10 1004.7
20260509020014 30 259 1.6 12.9 0.00 0.00 0.00 10 1004.6
20260509014515 30 296 9.7 14.5 0.00 0.00 0.00 9 1004.5
20260509013013 30 317 9.7 19.3 0.00 0.00 0.00 9 1004.3
20260509011513 30 360 6.4 17.7 0.00 0.00 0.00 9 1004.2
20260509010012 31 36 3.2 9.7 0.00 0.00 0.00 9 1004.2
20260509004510 30 341 12.9 24.1 0.00 0.00 0.00 9 1004.3
20260509003009 30 30 8.0 24.1 0.00 0.00 0.00 9 1004.4
20260509001508 30 12 11.3 19.3 0.00 0.00 0.00 9 1004.3
20260509000107 30 291 9.7 30.6 0.00 0.00 0.00 9 1004.5
20260508234506 30 311 16.1 24.1 0.00 0.00 0.00 9 1004.4
20260508233004 30 294 17.7 29.0 0.00 0.00 0.00 9 1004.6
20260508231504 30 286 17.7 25.7 0.00 0.00 0.00 9 1004.7
20260508230100 30 312 6.4 25.7 0.00 0.00 0.00 9 1004.9
20260508224559 30 312 11.3 22.5 0.00 0.00 0.00 9 1004.8
20260508223057 30 291 3.2 22.5 0.00 0.00 0.00 8 1004.9
20260508221555 30 342 17.7 30.6 0.00 0.00 0.00 8 1005.0
20260508220052 30 5 6.4 24.1 0.00 0.00 0.00 9 1005.1
20260508214602 29 216 1.6 14.5 0.00 0.00 0.00 11 1005.2
20260508213046 29 150 17.7 27.4 0.00 0.00 0.00 11 1005.4
20260508211542 29 334 3.2 17.7 0.00 0.00 0.00 12 1005.5
20260508210041 29 347 4.8 22.5 0.00 0.00 0.00 13 1005.7
20260508204538 28 88 3.2 9.7 0.00 0.00 0.00 11 1006.0
20260508203036 28 84 16.1 20.9 0.00 0.00 0.00 11 1006.1
20260508201533 29 136 9.7 17.7 0.00 0.00 0.00 12 1006.3
20260508200035 28 36 8.0 17.7 0.00 0.00 0.00 13 1006.7
20260508194528 28 80 6.4 11.3 0.00 0.00 0.00 15 1006.7
20260508193028 27 282 4.8 19.3 0.00 0.00 0.00 17 1006.7
20260508191524 27 259 9.7 14.5 0.00 0.00 0.00 17 1007.2
20260508190039 27 169 4.8 9.7 0.00 0.00 0.00 19 1007.3
20260508184529 27 71 9.7 17.7 0.00 0.00 0.00 19 1007.4
20260508183028 27 132 1.6 11.3 0.00 0.00 0.00 17 1007.6
20260508181518 26 275 4.8 16.1 0.00 0.00 0.00 18 1007.7
20260508180011 26 257 3.2 11.3 0.00 0.00 0.00 17 1008.0
20260508174507 26 288 11.3 19.3 0.00 0.00 0.00 16 1008.3
20260508173003 25 292 6.4 16.1 0.00 0.00 0.00 16 1008.3
20260508171606 25 309 4.8 17.7 0.00 0.00 0.00 18 1008.3
20260508170105 24 288 14.5 20.9 0.00 0.00 0.00 19 1008.5
20260508164556 23 318 12.9 24.1 0.00 0.00 0.00 20 1008.5
20260508163046 22 303 19.3 25.7 0.00 0.00 0.00 21 1008.7
20260508161542 22 306 16.1 24.1 0.00 0.00 0.00 21 1008.9
20260508160039 22 306 12.9 25.7 0.00 0.00 0.00 21 1009.1
20260508154536 22 315 16.1 25.7 0.00 0.00 0.00 24 1009.1
20260508153035 21 302 14.5 20.9 0.00 0.00 0.00 26 1009.2
20260508151524 21 317 14.5 20.9 0.00 0.00 0.00 27 1009.1
20260508150019 21 315 14.5 27.4 0.00 0.00 0.00 28 1009.2
20260508144524 20 296 17.7 30.6 0.00 0.00 0.00 28 1009.3
20260508143013 20 304 17.7 24.1 0.00 0.00 0.00 28 1009.3
20260508141510 20 314 16.1 25.7 0.00 0.00 0.00 28 1009.3
20260508140001 19 305 14.5 25.7 0.00 0.00 0.00 29 1009.2
20260508134558 18 308 12.9 20.9 0.00 0.00 0.00 34 1009.1
20260508133053 18 329 3.2 9.7 0.00 0.00 0.00 40 1009.0
20260508131600 17 38 3.2 6.4 0.00 0.00 0.00 40 1009.0